www.pogodaiklimat.ru

Погода и климат >> Архив погоды >> Южная Африка >> Langebaanweg


ПОГОДА в Langebaanweg

  • Прогноз погоды в Langebaanweg
  • Монитор погоды в Langebaanweg
  • Климат города

АРХИВ ПОГОДЫ в Langebaanweg

Время (UTC), дата Ветер
(напр.,м/с)
 
Видим.   Явления Облачность Т
(С)
Тd
(С)
f
(%)
Тe
(С)
Тes
(С)
Комфортность P
(гПа)
Po
(гПа)
Тmin
(С)
Tmax
(С)
R
(мм)
R24
(мм)
S
(см)
15 14.10 СЗ 5 н/о н/о +19.0 +10.4 57 +19 +19 855.5 1011.4 +18.8 +20.3
18 14.10 С 3 н/о н/о +16.2 +11.4 73 +16 +16 855.7 1013.3 +16.2 +20.3
21 14.10 В 1 н/о н/о +13.9 +10.9 82 +14 +14 855.6 1014.6 +13.9 +20.3
00 15.10 С 2 н/о н/о +14.7 +12.5 87 +14 +14 855.9 1014.5 +13.6 +20.3
03 15.10 СЗ 1 н/о н/о +15.3 +12.6 84 +16 +16 857.0 1015.4 +13.6 +20.3
06 15.10 Ю 2 н/о н/о +15.9 +12.4 80 +16 +16 859.1 1017.4 +13.6
09 15.10 ЮЗ 4 н/о н/о +19.6 +11.2 58 +21 +21 комфорт 861.0 1017.3 +13.6 +20.2
12 15.10 З 6 н/о н/о +20.1 +10.3 53 +21 +21 комфорт 861.4 1017.4 +13.6 +20.9
15 15.10 ЮЗ 6 н/о н/о +19.8 +10.0 53 +21 +21 комфорт 860.6 1016.7 +19.6 +20.9
18 15.10 Ю 4 н/о н/о +15.2 +10.8 75 +14 +14 858.9 1017.6 +15.2 +20.9
21 15.10 Ю 3 н/о н/о +13.4 +10.4 82 +12 +12 858.8 1018.6 +13.4 +20.9
00 16.10 ЮЗ 3 н/о н/о +11.3 +8.8 85 +10 +10 856.9 1017.7 +11.3 +20.9
03 16.10 ЮЗ 3 н/о н/о +11.2 +8.9 86 +10 +10 856.6 1017.4 +10.5 +20.9
06 16.10 Ю 3 н/о н/о +13.6 +9.6 77 +12 +12 858.5 1018.1 +9.9
12 16.10 ЮЗ 7 н/о н/о +20.4 +7.2 42 +21 +21 комфорт 860.7 1016.4 +9.9 +21.6
18 16.10 ЮЗ 5 н/о н/о +15.5 +10.9 74 +14 +14 859.4 1018.0 +15.5 +21.6
03 17.10 ЮЗ 3 н/о н/о +8.7 +6.6 87 +6 +6 853.9 1015.9 +8.7 +21.6
06 17.10 ЮЗ 4 н/о н/о +14.9 +12.7 87 +14 +14 858.2 1017.0 +8.6
09 17.10 Ю 3 н/о н/о +22.3 +7.4 38 +23 +23 комфорт 861.0 1015.6 +8.6 +22.4
12 17.10 ЮЗ 7 н/о н/о +24.2 +9.5 39 +25 +25 комфорт 860.5 1013.9 +8.6 +24.2
15 17.10 ЮЗ 6 н/о н/о +23.5 +6.9 34 +24 +24 комфорт 857.9 1011.5 +23.3 +24.5
18 17.10 ЮЗ 4 н/о н/о +17.9 +9.6 58 +18 +18 855.4 1012.0 +17.9 +24.5
21 17.10 З 2 н/о н/о +15.2 +10.4 73 +15 +15 854.1 1012.1 +15.2 +24.5
00 18.10 ЮВ 1 н/о н/о +14.7 +11.8 83 +15 +15 853.0 1011.2 +14.3 +24.5
03 18.10 Ю 2 н/о н/о +11.2 +9.3 88 +10 +10 850.3 1010.2 +11.2 +24.5
06 18.10 ЮЗ 3 н/о н/о +16.0 +12.9 82 +16 +16 853.8 1011.3 +11.0
09 18.10 ЮЗ 7 н/о н/о +23.0 +8.8 40 +24 +24 комфорт 857.8 1011.7 +11.0 +23.1
12 18.10 З 6 н/о н/о +24.5 +6.5 31 +24 +24 комфорт 857.0 1009.9 +11.0 +25.6
15 18.10 ЮЗ 7 н/о н/о +21.3 +10.3 49 +23 +23 комфорт 855.7 1010.3 +21.3 +25.6
18 18.10 ЮЗ 5 н/о н/о +16.6 +13.5 82 +16 +16 855.0 1012.3 +16.6 +25.6
21 18.10 Ю 3 н/о н/о +17.2 +14.3 83 +17 +17 856.3 1013.5 +15.8 +25.6
00 19.10 Ю 3 н/о н/о +16.6 +14.1 85 +16 +16 856.4 1013.9 +15.8 +25.6
03 19.10 Ю 4 н/о н/о +14.2 +11.0 81 +13 +13 856.2 1015.1 +14.2 +25.6
06 19.10 Ю 8 н/о н/о +16.5 +8.0 57 +15 +15 859.0 1016.9 +13.3
09 19.10 Ю 10 н/о н/о +19.8 +8.3 47 +20 +20 861.9 1018.1 +13.3 +19.9
12 19.10 Ю 10 н/о н/о +19.9 +7.4 44 +20 +20 861.4 1017.5 +13.3 +20.7
15 19.10 Ю 10 н/о н/о +19.7 +8.2 47 +20 +20 861.4 1017.7 +19.7 +20.7
18 19.10 Ю 7 н/о н/о +16.3 +8.1 58 +15 +15 860.4 1018.6 +16.3 +20.7
21 19.10 Ю 5 н/о н/о +14.8 +6.9 59 +13 +13 860.5 1019.7 +14.8 +20.7
00 20.10 Ю 5 н/о н/о +12.3 +6.1 66 +10 +10 858.8 1019.3 +12.3 +20.7
03 20.10 Ю 5 н/о н/о +13.6 +5.0 56 +12 +12 859.4 1019.1 +11.1 +20.7
06 20.10 Ю 5 н/о н/о +18.8 +4.3 38 +19 +19 863.0 1020.0 +11.1
09 20.10 ЮВ 5 н/о н/о +25.7 -0.9 17 +24 +24 комфорт 866.6 1019.7 +11.1 +25.8
12 20.10 ЮВ 5 н/о н/о +29.7 -2.3 12 +27 +27 жарко 866.4 1017.1 +11.1 +29.8
15 20.10 ЮВ 5 н/о н/о +30.4 +0.2 14 +27 +27 жарко 865.3 1015.5 +29.6 +31.0
18 20.10 Ю 5 н/о н/о +23.3 +3.4 27 +23 +23 комфорт 862.5 1016.7 +23.3 +31.0
21 20.10 ЮВ 5 н/о н/о +19.3 +2.7 33 +19 +19 860.8 1017.2 +19.3 +31.0
00 21.10 ЮВ 3 н/о н/о +19.2 +1.3 30 +20 +20 860.4 1016.8 +18.9 +31.0
03 21.10 ЮВ 4 н/о н/о +18.2 -2.5 24 +18 +18 859.1 1015.9 +17.9 +31.0
06 21.10 ЮВ 6 н/о н/о +21.9 -3.2 18 +21 +21 комфорт 861.9 1016.8 +17.9
09 21.10 ЮВ 5 н/о н/о +29.3 -8.0 8 +26 +26 жарко 864.6 1015.4 +17.9 +29.3
12 21.10 ЮВ 3 н/о н/о +32.8 -14.2 4 +28 +28 жарко 863.9 1012.6 +17.9 +33.1

 

Местоположение метеостанции Langebaanweg (Южная Африка): широта -32.96 долгота 18.17 высота над уровнем моря 32 м.

В архиве по умолчанию представлена погода в Langebaanweg за последнюю неделю. Архивные данные за месяц целиком и за предыдущие месяцы, начиная с января 2011 года, Вы можете получить, выбрав интересующий диапазон дат из раскрывающегося списка и нажав кнопку "Ввод!".


*Определитесь, кто Вы:
робот инопланетянин человек

Внимание! Время в таблицах - всемирное. Для получения местного времени необходимо прибавить поправку, которая в Langebaanweg равна 2 ч.

Смотрите также архив погоды в соседних городах и на ближайших метеорологических станциях:

Погода в Langebaan (Южная Африка) (19 км)
Погода в Geelbek (Южная Африка) (27 км)
Погода в Cape Columbine (Южная Африка) (33 км)
Погода в Malmesbury (Южная Африка) (76 км)
Погода в Robben Island (Южная Африка) (95 км)
Погода в Lamberts Bay (Южная Африка) (105 км)
Погода в Table Bay (Южная Африка) (107 км)
Погода в Ysterplant (Южная Африка) (109 км)
Погода в Clanwilliam (Южная Африка) (110 км)
Погода в Cape Town (Южная Африка) (111 км)

Пояснения к столбцам:

Ветер - указаны скорость ветра в м/с - средняя за 10 мин, порывы в срок и между сроками (в фигурных скобках) и направление, откуда дует ветер: С - северный, СВ - северо-восточный, В - восточный, ЮВ - юго-восточный, Ю - южный, ЮЗ - юго-западный, З - западный, СЗ - северо-западный.
Видимость - горизонтальная дальность видимости в метрах или километрах. При видимости от 1 до 10 км при отсутствии осадков обычно наблюдается дымка, при ухудшении видимости до 1 км и менее - туман. В сухую погоду видимость может ухудшаться дымом, пылью или мглою.
Явления - указаны атмосферные явления, наблюдавшиеся в срок или в последний час перед сроком; фигурными скобками обозначены явления, наблюдавшиеся между сроками (за 1-3 часа до срока); квадратными скобками обозначены град или гололедные отложения с указанием их диаметра в мм.
Облачность - указаны через наклонную черту общая и нижняя облачность в баллах и высота нижней границы облаков в метрах; квадратными скобками обозначены формы облаков: Ci - перистые, Cs - перисто-слоистые, Cc - перисто-кучевые, Ac - высококучевые, As - высокослоистые, Sc - слоисто-кучевые, Ns - слоисто-дождевые, Cu - кучевые, Cb - кучево-дождевые. Подробнее классификацию облаков см. в Атласе облаков (PDF).
T - Температура воздуха - температура, измеренная на высоте 2 м над землей.
Td - Температура точки росы - температура, при понижении до которой содержащийся в воздухе водяной пар достигнет насыщения.
f - Относительная влажность воздуха - влажноcть воздуха, измеренная на высоте 2 м над землей.
Te - Эффективная температура - температура, которую ощущает одетый по сезону человек в тени. Характеристика душности погоды. При расчете учитывается влияние влажности воздуха и скорости ветра на теплоощущения человека.
Tes - Эффективная температура на солнце - температура, которую ощущает человек, с поправкой на солнечный нагрев. Характеристика знойности погоды. Зависит от высоты солнца над горизонтом, облачности и скорости ветра. Ночью, в пасмурную погоду, а также при ветре 12 м/с и более поправка равна нулю.
P - Атмосферное давление - приведенное к уровню моря атмосферное давление.
Po - Атмосферное давление - измеренное на уровне метеостанции атмосферное давление.
Tmin - Минимальная температура - минимум температуры воздуха на высоте 2 м над землей.
Tmax - Максимальная температура - максимум температуры воздуха на высоте 2 м над землей.
R - Количество осадков - Количество выпавших осадков за период времени, мм. При наведении курсора мыши на число - период времени, за который выпало указанное количество осадков.
R24 - Количество осадков - Количество выпавших осадков за 24 часа, мм.
S - Снежный покров - Высота снежного покрова, см. При наведении курсора мыши на число - состояние снежного покрова и степень покрытия местности в баллах.